Content
SEND FEEDBACK

Daily
Averages
Monthly
Summary
Philippines

CAVITE, PHILIPPINES


Home > Asia > Philippines
Elevation: 13 feet     Latitude: 14 30N     Longitude: 120 55E

WEATHER
 
SELECT A DAY
Number of Records: 178,130;   Date Range: 7/1/96 - 11/25/14
 
SHARE

PRINT THIS DATA

[ ← Previous Day ]
WEATHER ALMANAC - APRIL 21, 2013
[ Next Day → ]
[ °C ]   °F
Weather ElementAverageHighLow
Temperature88.1 °F96 °F (2:00 pm)76 °F (5:00 am)
Dewpoint75.2 °F78.8 °F (1:00 am)73.4 °F (5:00 am)
Humidity64.8 %92 % (5:00 am)42 % (2:00 pm)
Barometer30.78 in (7:00 pm)29.74 in (4:00 pm)
Wind Speed8.3 mph12.7 mph (3:00 pm)
Weather ElementAverage
Visibility6.1 mi
Wind DirectionESE (99 °)

Weather ElementTotal
Precipitation---
Cooling Degree Days21 (Base 65)
Growing Degree Days36 (Base 50)
Averaged from 31 records on April 21, 2013
WEATHER CONDITIONS BREAKOUT
WIND DIRECTION BREAKOUT
WEATHER BY HOUR - APRIL 21, 2013
[ °C ]   °F
Local TimeTemperatureDewpointHumidityBarometerVisibilityWind DirectionWind SpeedGust SpeedPrecipitationEventsConditions
1:00 AM86.0 °F78.8 °F79 %29.86 in6.2 miVariable2.3 mphScattered Clouds
2:00 AM80.0 °F77.0 °F87 %29.84 in6.0 miENE (60°)4.5 mphHaze
2:00 AM84.2 °F78.8 °F84 %29.83 in6.2 miENE (60°)4.6 mphScattered Clouds
3:00 AM84.2 °F77.0 °F79 %29.83 in6.2 miNE (50°)6.9 mphScattered Clouds
4:00 AM84.2 °F75.2 °F74 %29.83 in6.2 miNorth (350°)3.5 mphScattered Clouds
5:00 AM76.0 °F74.0 °F92 %29.85 in6.0 miNNE (20°)6.7 mphHaze
5:00 AM84.2 °F73.4 °F70 %29.83 in6.2 miNNE (20°)5.8 mphScattered Clouds
6:00 AM84.2 °F75.2 °F74 %29.86 in6.2 miNNE (30°)6.9 mphMostly Cloudy
7:00 AM84.2 °F77.0 °F79 %29.86 in6.2 miNE (50°)6.9 mphScattered Clouds
8:00 AM89.0 °F75.0 °F55 %29.88 in6.0 miSE (140°)6.7 mphHaze
8:00 AM87.8 °F75.2 °F66 %29.86 in6.2 miSE (140°)5.8 mphScattered Clouds
9:00 AM89.6 °F75.2 °F62 %29.86 in6.2 miVariable8.1 mphScattered Clouds
10:00 AM93.2 °F73.4 °F52 %29.86 in6.2 miSE (130°)9.2 mphPartly Cloudy
11:00 AM92.0 °F74.0 °F47 %29.87 in6.0 miSE (130°)8.9 mphHaze
11:00 AM93.2 °F73.4 °F52 %29.86 in6.2 miSE (130°)9.2 mphScattered Clouds
12:00 PM95.0 °F75.2 °F53 %29.83 in6.2 miSE (140°)10.4 mphScattered Clouds
1:00 PM95.0 °F73.4 °F49 %29.80 in6.2 miSE (140°)11.5 mphScattered Clouds
2:00 PM96.0 °F75.0 °F42 %29.79 in6.0 miSE (140°)11.2 mphPartly Cloudy
2:00 PM95.0 °F73.4 °F49 %29.77 in6.2 miVariable11.5 mphScattered Clouds
3:00 PM95.0 °F73.4 °F49 %29.77 in6.2 miVariable12.7 mphMostly Cloudy
4:00 PM91.4 °F75.2 °F59 %29.74 in6.2 miVariable10.4 mphRainLight Rain Showers
5:00 PM91.0 °F74.0 °F49 %29.76 in6.0 miSE (130°)11.2 mphHaze
5:00 PM91.4 °F73.4 °F55 %29.77 in6.2 miSE (130°)11.5 mphMostly Cloudy
6:00 PM84.2 °F78.8 °F84 %29.83 in6.2 miWest (270°)6.9 mphMostly Cloudy
7:00 PM87.8 °F75.2 °F66 %6.2 miESE (120°)9.2 mphScattered Clouds
8:00 PM87.0 °F74.0 °F59 %29.84 in6.0 miEast (100°)8.9 mphHaze
8:00 PM87.8 °F77.0 °F70 %29.83 in6.2 miEast (100°)9.2 mphPartly Cloudy
9:00 PM86.0 °F75.2 °F70 %29.86 in6.2 miESE (120°)10.4 mphScattered Clouds
10:00 PM86.0 °F75.2 °F70 %29.89 in6.2 miSE (130°)8.1 mphScattered Clouds
11:00 PM85.0 °F74.0 °F64 %29.90 in6.0 miESE (120°)8.9 mphHaze
11:00 PM86.0 °F75.2 °F70 %29.89 in6.2 miESE (120°)9.2 mphMostly Cloudy
Hourly data recorded from RPLL, located miles away from Cavite, Philippines







STORIES FROM OUR PARTNERS